Вернуться в каталог

CZ-4 DEB

АктивенSSO
NORAD 35322·DEBRIS·🇨🇳 China

Запущен Oct 14, 1999 с Taiyuan Satellite Launch Center

Loading…

Ближайшие Пролёты (ближайшие 24 часа)

TLE

СвежийSource: Space-Track

Эпоха: Sep 13, 2026, 09:04 UTC

1 35322U 99057SA  26256.37819903  .00000308  00000-0  15378-3 0  9994
2 35322  99.0748 306.5219 0195791 203.2036 156.0206 14.14658006683640

Отслеживайте CZ-4 DEB в реальном времени с AllMySat

Download on the App Store